Location: Gymnasium_Grossenhain
(51.3000°N, 13.5950°E)
Time: 19:14:59
(UTC+01:00)

ARIANE 6 FM1 Upper Stage - Pass Details

Date: 18 October 2024
Orbit: 559 x 596 km, 62.0° (Epoch: 07 November)

Event Time Altitude Azimuth Distance (km) Brightness Sun altitude
Rises 20:43:48 0° 309° (NW) 2,830 7.3 -25.3°
Reaches altitude 10° 20:46:08 10° 303° (WNW) 1,930 6.3 -25.6°
Maximum altitude 20:50:15 42° 232° (SW) 857 3.7 -26.3°
Enters shadow 20:50:25 42° 226° (SW) 859 3.7 -26.3°
